Palm Springs, CA

5:18 AM PST on January 22, 2018 (GMT -0800)
Palm Springs International

Weather History for KPSP - August, 2014

Change the Weather History Date:

Tuesday, August 19, 2014

  Actual Average Record
Temperature  
Mean Temperature 92 °F 92 °F  
Max Temperature 104 °F 106 °F 115 °F (1928)
Min Temperature 80 °F 78 °F 61 °F (1956)
Degree Days  
Heating Degree Days 0 0  
Month to date heating degree days 0 0  
Since 1 June heating degree days 0 0  
Since 1 July heating degree days 0 0  
Cooling Degree Days 27 27  
Month to date cooling degree days 506 518  
Year to date cooling degree days 3278 2770  
Since 1 June cooling degree days 2168 2011  
Growing Degree Days 42 (Base 50)    
Moisture  
Dew Point 51 °F    
Average Humidity 28    
Maximum Humidity 44    
Minimum Humidity 11    
Precipitation  
Precipitation 0.00 in 0.01 in 0.22 in (1983)
Month to date precipitation 0.88 0.21  
Year to date precipitation 1.90 3.40  
Since 1 July precipitation 1.15  
Snow  
Snow 0.00 in - - ()
Month to date snowfall 0.0  
Year to date snowfall 0.0  
Snow Depth 0.00 in    
Sea Level Pressure  
Sea Level Pressure 29.74 in    
Wind  
Wind Speed 9 mph (NW)    
Max Wind Speed 26 mph    
Max Gust Speed 35 mph    
Visibility 10 miles    
Events      
T = Trace of Precipitation, MM = Missing Value Source: NWS Daily Summary

Daily Weather History Graph

Daily Weather History Graph

Search for Another Location

Airport or City:

Trip Planner

Search our weather history database for the weather conditions in past years. The results will help you decide how hot, cold, wet, or windy it might be!

Date:

Astronomy

Aug. 19, 2014 Rise Set
Actual Time 6:10 AM PDT 7:27 PM PDT
Civil Twilight 5:44 AM PDT 7:53 PM PDT
Nautical Twilight 5:13 AM PDT 8:25 PM PDT
Astronomical Twilight 4:40 AM PDT 8:57 PM PDT
Moon 1:10 AM PDT (8/19) 3:23 PM PDT (8/19)
Length of Visible Light 14h 09m
Length of Day
13h 17m
Waning Crescent, 28% of the Moon is Illuminated
Aug 19
Waning Crescent
Aug 25
New
Sep 2
First Quarter
Sep 8
Full
Sep 15
Last Quarter

Hourly Weather History & Observations

Time (PDT) Temp. Heat Index Dew Point Humidity Pressure Visibility Wind Dir Wind Speed Gust Speed Precip Events Conditions
12:05 AM 89.1 °F - 50.0 °F 26% 29.79 in 10.0 mi NNW 10.4 mph - N/A   Partly Cloudy
12:53 AM 88.0 °F - 48.9 °F 26% 29.78 in 10.0 mi NNW 11.5 mph - N/A   Clear
1:40 AM 87.1 °F - 50.0 °F 28% 29.79 in 10.0 mi NNW 13.8 mph - N/A   Scattered Clouds
1:53 AM 87.1 °F - 52.0 °F 30% 29.77 in 10.0 mi NNW 11.5 mph - N/A   Scattered Clouds
2:53 AM 84.9 °F - 52.0 °F 32% 29.77 in 10.0 mi NW 10.4 mph - N/A   Mostly Cloudy
3:53 AM 84.0 °F - 51.1 °F 32% 29.77 in 10.0 mi NW 11.5 mph - N/A   Partly Cloudy
4:53 AM 82.9 °F - 51.1 °F 33% 29.76 in 10.0 mi WNW 5.8 mph - N/A   Clear
5:53 AM 82.9 °F 82.0 °F 55.0 °F 38% 29.76 in 10.0 mi WNW 5.8 mph - N/A   Clear
6:53 AM 81.0 °F 80.8 °F 55.9 °F 42% 29.77 in 10.0 mi SW 3.5 mph - N/A   Clear
7:53 AM 84.9 °F 83.6 °F 55.0 °F 36% 29.77 in 10.0 mi Calm Calm - N/A   Partly Cloudy
8:53 AM 88.0 °F 86.7 °F 57.0 °F 35% 29.78 in 10.0 mi Calm Calm - N/A   Partly Cloudy
9:53 AM 90.0 °F 91.3 °F 64.0 °F 42% 29.78 in 10.0 mi Calm Calm - N/A   Clear
10:53 AM 91.9 °F 92.9 °F 63.0 °F 38% 29.78 in 10.0 mi Variable 3.5 mph - N/A   Clear
11:53 AM 96.1 °F 94.8 °F 57.0 °F 27% 29.76 in 10.0 mi Calm Calm - N/A   Partly Cloudy
12:53 PM 100.9 °F - 46.0 °F 15% 29.74 in 10.0 mi NW 16.1 mph 25.3 mph N/A   Clear
1:53 PM 100.9 °F - 44.1 °F 14% 29.71 in 10.0 mi NW 16.1 mph 21.9 mph N/A   Scattered Clouds
2:53 PM 102.9 °F - 42.1 °F 13% 29.69 in 10.0 mi NW 19.6 mph 28.8 mph N/A   Clear
3:53 PM 102.0 °F - 37.9 °F 11% 29.67 in 10.0 mi NW 19.6 mph 26.5 mph N/A   Clear
4:53 PM 100.9 °F - 42.1 °F 13% 29.66 in 10.0 mi NW 17.3 mph 26.5 mph N/A   Clear
5:53 PM 99.0 °F - 46.0 °F 16% 29.66 in 10.0 mi NW 13.8 mph 29.9 mph N/A   Clear
6:53 PM 93.9 °F 91.4 °F 53.1 °F 25% 29.68 in 10.0 mi NW 19.6 mph - N/A   Clear
7:53 PM 91.0 °F - 51.1 °F 25% 29.69 in 10.0 mi NW 19.6 mph 31.1 mph N/A   Clear
8:53 PM 88.0 °F - 48.9 °F 26% 29.72 in 10.0 mi NW 16.1 mph 26.5 mph N/A   Clear
9:53 PM 86.0 °F - 48.9 °F 28% 29.74 in 10.0 mi NW 15.0 mph - N/A   Clear
10:53 PM 84.9 °F - 48.9 °F 29% 29.74 in 10.0 mi NW 12.7 mph - N/A   Clear
11:53 PM 84.9 °F - 48.0 °F 28% 29.76 in 10.0 mi Variable 4.6 mph - N/A   Clear